Regional Weather Roundup
Issued by NWS

Home | Current Version | Previous Version | Text Only | Print | Product List | Glossary Off
Versions: 1 2 3 4 5 6 7 8 9 10 11 12 13 14 15 16 17 18 19 20 21 22 23 24 25 26 27 28 29 30 31 32 33 34 35 36 37 38 39 40 41 42 43 44 45 46 47 48 49 50

000
ASUS43 KDTX 310310
RWRMI
MICHIGAN HOURLY REGIONAL WEATHER ROUNDUP
NATIONAL WEATHER SERVICE DETROIT/PONTIAC MI
1100 PM EDT MON MAY 30 2016

NOTE: "FAIR" INDICATES FEW OR NO CLOUDS BELOW 12,000 FEET WITH NO
SIGNIFICANT WEATHER AND/OR OBSTRUCTION TO VISIBILITY.

MIZ047>049-052>055-059>063-066>070-074>076-081>083-310400-
SOUTHEAST LOWER MICHIGAN

CITY           SKY/WX    TMP DP  RH WIND       PRES   REMARKS
ADRIAN         CLEAR     69  53  56 N5        30.00R
ALMA           CLEAR     63  48  57 N5        30.01S
ANN ARBOR      CLEAR     62  52  69 NW5       29.99R
BAD AXE        CLEAR     63  53  68 N3        30.00R
CARO           CLEAR     62  51  68 N6        30.00R
DETROIT CITY   CLEAR     75  53  46 NW3       29.98R
DETROIT        PTCLDY    72  54  53 NW5       29.98R
FLINT          CLEAR     71  55  56 NW6       30.00R
GROSSE ILE     CLEAR     68  63  83 CALM      29.97R
HILLSDALE      CLEAR     65  51  60 CALM      30.02R
HOWELL         CLEAR     68  50  52 NW3       30.00S

CITY           SKY/WX    TMP DP  RH WIND       PRES   REMARKS
JACKSON        CLEAR     65  53  65 CALM      30.01R
LAMBERTVILLE   CLEAR     65  56  72 CALM      29.99R HAZE
LANSING        CLEAR     67  54  63 W3        30.01R
LAPEER         MOCLDY    69  54  59 NW6       30.00R
MASON          CLEAR     64  55  73 CALM      30.01R
MONROE         CLEAR     65  62  90 CALM      29.98R
MT. CLEMENS    CLEAR     66  58  73 CALM      29.97R
PONTIAC        CLEAR     71  53  52 NW6       29.99R
PORT HOPE        N/A     60  59  96 CALM      29.98R
PORT HURON     CLOUDY    63  61  94 CALM      29.98R
TRI CITIES     CLEAR     68  47  46 N7        30.01R
MIDLAND        FAIR      61  48  64 CALM      30.00R
TROY           CLEAR     74  55  50 NW5       30.00S
SAGINAW HB     CLEAR     68  46  45 N5        30.00R
$$
MIZ043>046-050>051-056>058-064>065-071>073-077>080-310400-
SOUTHWEST LOWER MICHIGAN

CITY           SKY/WX    TMP DP  RH WIND       PRES   REMARKS
BATTLE CREEK   CLEAR     69  56  62 N3        30.01R
BENTON HARBOR  CLOUDY    65  57  75 CALM      30.00R
BIG RAPIDS     CLEAR     60  52  74 CALM      30.01S
COLDWATER      CLOUDY    63  54  72 CALM      30.01R
FREMONT        FAIR      62  50  66 CALM      30.01S
HOLLAND        CLEAR     65  57  75 CALM      30.01R
GRAND RAPIDS   CLEAR     70  54  56 NW5       30.01R
IONIA          FAIR      68  53  58 W5        30.01R
KALAMAZOO      CLEAR     70  55  59 N5        30.01R
LUDINGTON      CLEAR     57  55  95 CALM      30.02R
MARSHALL       CLEAR     64  55  71 CALM      30.00S
MOUNT PLEASANT CLEAR     60  52  74 CALM      30.01S
MUSKEGON       PTCLDY    61  56  83 CALM      30.01S
SOUTH HAVEN    PTCLDY    65  57  76 CALM      30.01R
$$
MIZ016>042-310400-
NORTHERN LOWER MICHIGAN

CITY           SKY/WX    TMP DP  RH WIND       PRES   REMARKS
ALPENA         CLEAR     61  51  70 CALM      29.99R
BEAVER ISLAND  CLEAR     54  50  87 W5        30.01R
BELLAIRE       CLEAR     57  53  88 CALM      30.00R
CADILLAC       CLEAR     57  50  77 CALM      30.02S
CHARLEVOIX     CLEAR     55  50  82 CALM      30.04R
FRANKFORT      CLEAR     58  54  87 N3        30.00S
GAYLORD        CLEAR     59  50  72 CALM      30.01R
GRAYLING       CLEAR     55  50  85 CALM      30.02R
HARBOR SPRINGS CLEAR     59  52  79 CALM      30.00R
HOUGHTON LAKE  CLEAR     57  52  83 CALM      30.02R
OSCODA         CLEAR     58  52  78 CALM      29.99S
PELLSTON       CLEAR     56  50  80 NW3       29.99S
ROGERS CITY    CLEAR     57  50  77 CALM      30.00S
TRAVERSE CITY  CLEAR     65  52  62 CALM      29.97R
$$
MIZ007>008-015-310400-
EASTERN UPPER MICHIGAN

CITY           SKY/WX    TMP DP  RH WIND       PRES   REMARKS
KINROSS          N/A     57  52  82 NW7       30.00R
MACKINAC ISLAN CLEAR     56  50  81 W8        29.99R
NEWBERRY       CLEAR     54  49  83 N3        30.01R
S. S. MARIE    CLEAR     54  49  83 W7        29.99R
MUNISING         N/A     52  47  83 N7        30.04R
$$
MIZ004>006-011>014-085-310400-
CENTRAL UPPER MICHIGAN

CITY           SKY/WX    TMP DP  RH WIND       PRES   REMARKS
MANISTIQUE     CLEAR     57  49  75 NW6       30.01R
ESCANABA       CLEAR     63  46  55 N9        30.00R
MENOMINEE      CLEAR     63  55  77 CALM      29.98R
SAWYER-GWINN   CLEAR     49  45  85 NE15      30.06R
$$
MIZ001>003-009>011-084-310400-
WESTERN UPPER MICHIGAN

CITY           SKY/WX    TMP DP  RH WIND       PRES   REMARKS
IRON MOUNTAIN  CLEAR     58  47  66 CALM      29.99R
HOUGHTON       CLEAR     51  43  74 NE12      30.05R
COPPER HARBOR    N/A     47  42  83 N9        30.06R
IRONWOOD       PTCLDY    61  52  72 E5        29.97R
$$

ABBREVIATIONS USED IN REMARKS
   TC - TEMPERATURE IN CELSIUS
  WCI - WIND CHILL INDEX
   HX - HEAT INDEX
  VSB - VISIBILITY





USA.gov is the U.S. government's official web portal to all federal, state and local government web resources and services.